| time (UTC) | temp F | wind direction | speed knots | gust knots | rain 1hr in | rain 24hr in | rain mn in | humidity % | barometer mb |
| 20260507113207 | 53 | 274 | 15.6 | 25.2 | 0.00 | 0.00 | 0.00 | 44 | 1019.1 |
| 20260507112206 | 53 | 277 | 15.6 | 21.7 | 0.00 | 0.00 | 0.00 | 44 | 1018.8 |
| 20260507111706 | 53 | 278 | 13.9 | 20.9 | 0.00 | 0.00 | 0.00 | 43 | 1018.8 |
| 20260507111206 | 53 | 273 | 12.2 | 18.2 | 0.00 | 0.00 | 0.00 | 43 | 1018.6 |
| 20260507110706 | 53 | 275 | 13.9 | 22.6 | 0.00 | 0.00 | 0.00 | 43 | 1018.6 |
| 20260507110206 | 53 | 280 | 13.9 | 25.2 | 0.00 | 0.00 | 0.00 | 43 | 1018.5 |
| 20260507105706 | 53 | 268 | 18.2 | 26.9 | 0.00 | 0.00 | 0.00 | 42 | 1018.7 |
| 20260507105206 | 53 | 264 | 22.6 | 32.2 | 0.00 | 0.00 | 0.00 | 42 | 1018.5 |
| 20260507104705 | 53 | 266 | 17.4 | 26.9 | 0.00 | 0.00 | 0.00 | 42 | 1018.5 |
| 20260507104206 | 53 | 265 | 20.0 | 26.9 | 0.00 | 0.00 | 0.00 | 42 | 1018.3 |
| 20260507103706 | 53 | 269 | 17.4 | 25.2 | 0.00 | 0.00 | 0.00 | 42 | 1018.3 |
| 20260507103206 | 54 | 268 | 12.2 | 24.3 | 0.00 | 0.00 | 0.00 | 43 | 1018.4 |
| 20260507102706 | 54 | 264 | 14.8 | 28.7 | 0.00 | 0.00 | 0.00 | 42 | 1018.2 |
| 20260507102206 | 54 | 264 | 19.1 | 26.9 | 0.00 | 0.00 | 0.00 | 41 | 1018.1 |
| 20260507101706 | 54 | 261 | 18.2 | 26.1 | 0.00 | 0.00 | 0.00 | 41 | 1018.2 |
| 20260507101206 | 54 | 269 | 20.0 | 30.4 | 0.00 | 0.00 | 0.00 | 41 | 1018.2 |
| 20260507100706 | 54 | 251 | 19.1 | 33.9 | 0.00 | 0.00 | 0.00 | 40 | 1018.0 |
| 20260507100206 | 54 | 246 | 19.1 | 28.7 | 0.00 | 0.00 | 0.00 | 40 | 1018.1 |
| 20260507095206 | 54 | 257 | 13.0 | 24.3 | 0.00 | 0.00 | 0.00 | 40 | 1018.1 |
| 20260507094706 | 54 | 268 | 18.2 | 27.8 | 0.00 | 0.00 | 0.00 | 40 | 1018.0 |
| 20260507094206 | 54 | 264 | 19.1 | 31.3 | 0.00 | 0.00 | 0.00 | 39 | 1017.9 |
| 20260507092205 | 54 | 264 | 18.2 | 26.1 | 0.00 | 0.00 | 0.00 | 39 | 1017.8 |
| 20260507091705 | 54 | 269 | 15.6 | 22.6 | 0.00 | 0.00 | 0.00 | 39 | 1017.6 |
| 20260507091206 | 54 | 265 | 17.4 | 27.8 | 0.00 | 0.00 | 0.00 | 39 | 1017.6 |
| 20260507090205 | 55 | 266 | 14.8 | 21.7 | 0.00 | 0.00 | 0.00 | 39 | 1017.5 |
| 20260507085705 | 55 | 276 | 16.5 | 21.7 | 0.00 | 0.00 | 0.00 | 38 | 1017.7 |
| 20260507085205 | 55 | 263 | 20.0 | 28.7 | 0.00 | 0.00 | 0.00 | 38 | 1017.3 |
| 20260507084706 | 55 | 275 | 13.9 | 21.7 | 0.00 | 0.00 | 0.00 | 39 | 1017.4 |
| 20260507084206 | 55 | 272 | 15.6 | 22.6 | 0.00 | 0.00 | 0.00 | 38 | 1017.4 |
| 20260507083706 | 55 | 269 | 17.4 | 26.1 | 0.00 | 0.00 | 0.00 | 38 | 1017.1 |
| 20260507083206 | 55 | 273 | 15.6 | 25.2 | 0.00 | 0.00 | 0.00 | 37 | 1017.1 |
| 20260507082706 | 55 | 272 | 13.9 | 25.2 | 0.00 | 0.00 | 0.00 | 37 | 1017.0 |
| 20260507081706 | 55 | 272 | 18.2 | 26.1 | 0.00 | 0.00 | 0.00 | 36 | 1016.9 |
| 20260507081205 | 55 | 269 | 14.8 | 21.7 | 0.00 | 0.00 | 0.00 | 37 | 1016.7 |
| 20260507080706 | 55 | 258 | 15.6 | 22.6 | 0.00 | 0.00 | 0.00 | 37 | 1016.6 |
| 20260507080205 | 56 | 261 | 18.2 | 26.1 | 0.00 | 0.00 | 0.00 | 36 | 1016.5 |
| 20260507075706 | 56 | 265 | 15.6 | 26.1 | 0.00 | 0.00 | 0.00 | 37 | 1016.4 |
| 20260507075206 | 56 | 258 | 14.8 | 22.6 | 0.00 | 0.00 | 0.00 | 37 | 1016.4 |
| 20260507074706 | 56 | 263 | 17.4 | 24.3 | 0.00 | 0.00 | 0.00 | 37 | 1016.3 |
| 20260507074206 | 56 | 269 | 17.4 | 22.6 | 0.00 | 0.00 | 0.00 | 36 | 1016.1 |
| 20260507073705 | 56 | 270 | 14.8 | 27.8 | 0.00 | 0.00 | 0.00 | 37 | 1015.9 |
| 20260507073206 | 56 | 275 | 13.9 | 22.6 | 0.00 | 0.00 | 0.00 | 37 | 1015.8 |
| 20260507072705 | 56 | 267 | 16.5 | 22.6 | 0.00 | 0.00 | 0.00 | 36 | 1015.8 |
| 20260507072206 | 56 | 274 | 14.8 | 22.6 | 0.00 | 0.00 | 0.00 | 36 | 1015.8 |
| 20260507071706 | 57 | 272 | 13.9 | 21.7 | 0.00 | 0.00 | 0.00 | 35 | 1015.5 |
| 20260507071205 | 57 | 267 | 15.6 | 22.6 | 0.00 | 0.00 | 0.00 | 35 | 1015.7 |
| 20260507070705 | 57 | 266 | 12.2 | 18.2 | 0.00 | 0.00 | 0.00 | 35 | 1015.6 |
| 20260507070205 | 57 | 269 | 15.6 | 24.3 | 0.00 | 0.00 | 0.00 | 34 | 1015.8 |
| 20260507065705 | 57 | 274 | 16.5 | 24.3 | 0.00 | 0.00 | 0.00 | 34 | 1015.5 |
| 20260507065206 | 57 | 265 | 19.1 | 30.4 | 0.00 | 0.00 | 0.00 | 33 | 1015.7 |
| 20260507064706 | 58 | 271 | 18.2 | 26.9 | 0.00 | 0.00 | 0.00 | 33 | 1015.4 |
| 20260507063705 | 58 | 273 | 19.1 | 24.3 | 0.00 | 0.00 | 0.00 | 33 | 1015.2 |
| 20260507063205 | 58 | 263 | 18.2 | 30.4 | 0.00 | 0.00 | 0.00 | 33 | 1015.4 |
| 20260507062706 | 58 | 249 | 14.8 | 22.6 | 0.00 | 0.00 | 0.00 | 33 | 1015.2 |
| 20260507062205 | 58 | 261 | 18.2 | 26.1 | 0.00 | 0.00 | 0.00 | 33 | 1015.2 |
| 20260507061706 | 59 | 250 | 21.7 | 28.7 | 0.00 | 0.00 | 0.00 | 32 | 1015.2 |
| 20260507061205 | 59 | 260 | 19.1 | 27.8 | 0.00 | 0.00 | 0.00 | 32 | 1015.2 |
| 20260507060706 | 59 | 261 | 18.2 | 33.9 | 0.00 | 0.00 | 0.00 | 32 | 1015.3 |
| 20260507060205 | 59 | 251 | 17.4 | 28.7 | 0.00 | 0.00 | 0.00 | 32 | 1014.9 |
| 20260507054705 | 59 | 255 | 23.5 | 30.4 | 0.00 | 0.00 | 0.00 | 29 | 1014.8 |
| 20260507054206 | 60 | 262 | 18.2 | 27.8 | 0.00 | 0.00 | 0.00 | 30 | 1014.8 |
| 20260507053706 | 60 | 267 | 18.2 | 33.0 | 0.00 | 0.00 | 0.00 | 30 | 1014.7 |
| 20260507053206 | 60 | 243 | 22.6 | 30.4 | 0.00 | 0.00 | 0.00 | 29 | 1014.7 |
| 20260507052706 | 60 | 256 | 26.1 | 33.0 | 0.00 | 0.00 | 0.00 | 29 | 1014.7 |
| 20260507051705 | 60 | 261 | 21.7 | 30.4 | 0.00 | 0.00 | 0.00 | 29 | 1014.5 |
| 20260507051205 | 60 | 256 | 21.7 | 33.9 | 0.00 | 0.00 | 0.00 | 29 | 1014.5 |
| 20260507050705 | 60 | 245 | 19.1 | 32.2 | 0.00 | 0.00 | 0.00 | 28 | 1014.4 |
| 20260507050206 | 60 | 250 | 21.7 | 32.2 | 0.00 | 0.00 | 0.00 | 28 | 1014.4 |
| 20260507045706 | 60 | 247 | 27.8 | 37.4 | 0.00 | 0.00 | 0.00 | 27 | 1014.4 |
| 20260507045206 | 60 | 252 | 22.6 | 31.3 | 0.00 | 0.00 | 0.00 | 28 | 1014.3 |
| 20260507044705 | 60 | 249 | 21.7 | 31.3 | 0.00 | 0.00 | 0.00 | 28 | 1014.3 |
| 20260507044205 | 60 | 249 | 21.7 | 30.4 | 0.00 | 0.00 | 0.00 | 27 | 1014.3 |
| 20260507043706 | 60 | 255 | 24.3 | 33.0 | 0.00 | 0.00 | 0.00 | 27 | 1014.2 |
| 20260507043205 | 60 | 254 | 20.0 | 30.4 | 0.00 | 0.00 | 0.00 | 27 | 1014.3 |
| 20260507042705 | 60 | 243 | 22.6 | 31.3 | 0.00 | 0.00 | 0.00 | 27 | 1014.2 |
| 20260507042206 | 60 | 246 | 26.1 | 34.8 | 0.00 | 0.00 | 0.00 | 27 | 1014.2 |
| 20260507041706 | 60 | 242 | 30.4 | 37.4 | 0.00 | 0.00 | 0.00 | 26 | 1014.2 |
| 20260507041205 | 61 | 242 | 26.1 | 33.0 | 0.00 | 0.00 | 0.00 | 27 | 1014.3 |
| 20260507040705 | 61 | 239 | 24.3 | 31.3 | 0.00 | 0.00 | 0.00 | 27 | 1014.1 |
| 20260507040205 | 61 | 244 | 27.8 | 34.8 | 0.00 | 0.00 | 0.00 | 27 | 1014.0 |
| 20260507035706 | 61 | 242 | 27.8 | 34.8 | 0.00 | 0.00 | 0.00 | 27 | 1013.9 |
| 20260507034705 | 61 | 241 | 27.8 | 38.2 | 0.00 | 0.00 | 0.00 | 27 | 1013.8 |
| 20260507033705 | 61 | 266 | 20.9 | 28.7 | 0.00 | 0.00 | 0.00 | 27 | 1013.5 |
| 20260507033206 | 61 | 262 | 22.6 | 30.4 | 0.00 | 0.00 | 0.00 | 26 | 1013.4 |
| 20260507032705 | 61 | 263 | 23.5 | 30.4 | 0.00 | 0.00 | 0.00 | 25 | 1013.5 |
| 20260507032205 | 61 | 269 | 19.1 | 26.9 | 0.00 | 0.00 | 0.00 | 25 | 1013.5 |
| 20260507031705 | 61 | 265 | 20.0 | 30.4 | 0.00 | 0.00 | 0.00 | 24 | 1013.4 |
| 20260507030705 | 62 | 265 | 15.6 | 30.4 | 0.00 | 0.00 | 0.00 | 25 | 1013.4 |
| 20260507025705 | 61 | 270 | 18.2 | 30.4 | 0.00 | 0.00 | 0.00 | 24 | 1013.6 |
| 20260507025206 | 61 | 255 | 19.1 | 30.4 | 0.00 | 0.00 | 0.00 | 23 | 1013.6 |
| 20260507024705 | 61 | 263 | 26.9 | 35.6 | 0.00 | 0.00 | 0.00 | 22 | 1013.5 |
| 20260507023705 | 61 | 264 | 26.9 | 33.9 | 0.00 | 0.00 | 0.00 | 22 | 1013.8 |
| 20260507023206 | 61 | 269 | 20.9 | 27.8 | 0.00 | 0.00 | 0.00 | 23 | 1013.6 |
| 20260507022205 | 62 | 278 | 18.2 | 26.1 | 0.00 | 0.00 | 0.00 | 24 | 1013.7 |
| 20260507021705 | 62 | 283 | 15.6 | 27.8 | 0.00 | 0.00 | 0.00 | 24 | 1013.8 |
| 20260507020705 | 62 | 271 | 21.7 | 28.7 | 0.00 | 0.00 | 0.00 | 23 | 1013.9 |
| 20260507020206 | 61 | 269 | 18.2 | 26.9 | 0.00 | 0.00 | 0.00 | 24 | 1013.9 |
| 20260507015205 | 62 | 249 | 22.6 | 33.0 | 0.00 | 0.00 | 0.00 | 24 | 1014.1 |
| 20260507014705 | 62 | 247 | 27.8 | 37.4 | 0.00 | 0.00 | 0.00 | 24 | 1013.9 |
| 20260507014205 | 62 | 257 | 19.1 | 26.9 | 0.00 | 0.00 | 0.00 | 27 | 1013.8 |
| 20260507013705 | 62 | 260 | 17.4 | 24.3 | 0.00 | 0.00 | 0.00 | 32 | 1014.0 |
| 20260507012205 | 60 | 264 | 18.2 | 26.9 | 0.00 | 0.00 | 0.00 | 33 | 1013.9 |
| 20260507011705 | 60 | 270 | 22.6 | 32.2 | 0.00 | 0.00 | 0.00 | 33 | 1013.8 |
| 20260507011205 | 60 | 265 | 24.3 | 33.0 | 0.00 | 0.00 | 0.00 | 33 | 1014.0 |
| 20260507010705 | 60 | 258 | 21.7 | 34.8 | 0.00 | 0.00 | 0.00 | 35 | 1014.0 |
| 20260507010204 | 59 | 257 | 29.5 | 37.4 | 0.00 | 0.00 | 0.00 | 37 | 1014.0 |
| 20260507005704 | 59 | 251 | 21.7 | 33.0 | 0.00 | 0.00 | 0.00 | 45 | 1014.2 |
| 20260507005205 | 59 | 252 | 17.4 | 26.9 | 0.00 | 0.00 | 0.00 | 46 | 1014.1 |
| 20260507004705 | 59 | 254 | 19.1 | 30.4 | 0.00 | 0.00 | 0.00 | 46 | 1014.1 |
| 20260507004205 | 59 | 253 | 24.3 | 35.6 | 0.00 | 0.00 | 0.00 | 46 | 1014.0 |
| 20260507003705 | 59 | 257 | 22.6 | 33.9 | 0.00 | 0.00 | 0.00 | 48 | 1014.1 |
| 20260507003205 | 60 | 254 | 30.4 | 40.8 | 0.00 | 0.00 | 0.00 | 48 | 1014.1 |
| 20260507002205 | 62 | 237 | 28.7 | 37.4 | 0.00 | 0.00 | 0.00 | 48 | 1014.0 |
| 20260507001705 | 63 | 235 | 14.8 | 31.3 | 0.00 | 0.00 | 0.00 | 49 | 1013.7 |
| 20260507001205 | 62 | 274 | 14.8 | 22.6 | 0.00 | 0.00 | 0.00 | 48 | 1013.6 |
| 20260507000705 | 63 | 266 | 17.4 | 22.6 | 0.00 | 0.00 | 0.00 | 48 | 1013.5 |
| 20260506235705 | 62 | 317 | 8.7 | 12.2 | 0.00 | 0.00 | 0.00 | 50 | 1013.5 |
| 20260506235205 | 62 | 304 | 8.7 | 13.0 | 0.00 | 0.00 | 0.00 | 49 | 1013.6 |
| 20260506234705 | 63 | 314 | 7.8 | 11.3 | 0.00 | 0.00 | 0.00 | 49 | 1013.7 |
| 20260506234205 | 62 | 325 | 6.1 | 11.3 | 0.00 | 0.00 | 0.00 | 49 | 1013.8 |
| 20260506233705 | 61 | 259 | 6.1 | 13.0 | 0.00 | 0.00 | 0.00 | 51 | 1013.7 |
| 20260506233205 | 61 | 300 | 7.8 | 12.2 | 0.00 | 0.00 | 0.00 | 51 | 1013.7 |
| 20260506232705 | 61 | 317 | 7.0 | 12.2 | 0.00 | 0.00 | 0.00 | 49 | 1013.7 |
| 20260506232205 | 62 | 296 | 8.7 | 11.3 | 0.00 | 0.00 | 0.00 | 48 | 1013.9 |
| 20260506231704 | 62 | 303 | 5.2 | 7.0 | 0.00 | 0.00 | 0.00 | 49 | 1013.9 |
| 20260506231205 | 62 | 332 | 5.2 | 7.0 | 0.00 | 0.00 | 0.00 | 50 | 1013.8 |
| 20260506230705 | 61 | 319 | 6.1 | 7.8 | 0.00 | 0.00 | 0.00 | 49 | 1013.8 |
| 20260506230205 | 61 | 287 | 5.2 | 8.7 | 0.00 | 0.00 | 0.00 | 50 | 1013.9 |
| 20260506224204 | 60 | 325 | 5.2 | 7.0 | 0.00 | 0.00 | 0.00 | 53 | 1013.9 |
| 20260506223704 | 60 | 308 | 6.1 | 7.0 | 0.00 | 0.00 | 0.00 | 52 | 1013.9 |
| 20260506223205 | 60 | 320 | 5.2 | 7.0 | 0.00 | 0.00 | 0.00 | 53 | 1013.8 |
| 20260506222705 | 59 | 325 | 5.2 | 8.7 | 0.00 | 0.00 | 0.00 | 54 | 1013.8 |
| 20260506221705 | 60 | 298 | 5.2 | 7.0 | 0.00 | 0.00 | 0.00 | 55 | 1013.7 |
| 20260506221205 | 60 | 282 | 4.3 | 5.2 | 0.00 | 0.00 | 0.00 | 55 | 1013.9 |
| 20260506220205 | 59 | 291 | 1.7 | 2.6 | 0.00 | 0.00 | 0.00 | 57 | 1013.8 |
| 20260506215705 | 58 | 277 | 2.6 | 4.3 | 0.00 | 0.00 | 0.00 | 57 | 1013.8 |
| 20260506214705 | 58 | 302 | 4.3 | 7.0 | 0.00 | 0.00 | 0.00 | 56 | 1013.5 |
| 20260506213705 | 58 | 319 | 2.6 | 5.2 | 0.00 | 0.00 | 0.00 | 57 | 1013.4 |
| 20260506213205 | 58 | 314 | 2.6 | 5.2 | 0.00 | 0.00 | 0.00 | 57 | 1013.6 |
| 20260506212705 | 57 | 311 | 2.6 | 4.3 | 0.00 | 0.00 | 0.00 | 57 | 1013.6 |
| 20260506212204 | 57 | 309 | 3.5 | 7.0 | 0.00 | 0.00 | 0.00 | 57 | 1013.6 |
| 20260506211705 | 57 | 306 | 5.2 | 7.0 | 0.00 | 0.00 | 0.00 | 57 | 1013.5 |
| 20260506210704 | 56 | 301 | 7.0 | 8.7 | 0.00 | 0.00 | 0.00 | 57 | 1013.4 |
| 20260506210205 | 56 | 310 | 7.8 | 10.4 | 0.00 | 0.00 | 0.00 | 57 | 1013.4 |
| 20260506205705 | 55 | 318 | 6.1 | 7.8 | 0.00 | 0.00 | 0.00 | 58 | 1013.2 |
| 20260506204704 | 56 | 297 | 5.2 | 7.0 | 0.00 | 0.00 | 0.00 | 58 | 1013.3 |
| 20260506204205 | 56 | 293 | 5.2 | 6.1 | 0.00 | 0.00 | 0.00 | 58 | 1013.2 |
| 20260506203704 | 56 | 296 | 4.3 | 5.2 | 0.00 | 0.00 | 0.00 | 58 | 1013.4 |
| 20260506203205 | 56 | 289 | 5.2 | 7.8 | 0.00 | 0.00 | 0.00 | 57 | 1013.3 |
| 20260506202704 | 56 | 298 | 5.2 | 6.1 | 0.00 | 0.00 | 0.00 | 57 | 1013.4 |
| 20260506202205 | 56 | 301 | 5.2 | 7.8 | 0.00 | 0.00 | 0.00 | 57 | 1013.4 |
| 20260506201704 | 56 | 273 | 8.7 | 11.3 | 0.00 | 0.00 | 0.00 | 57 | 1013.3 |
| 20260506201204 | 56 | 275 | 4.3 | 8.7 | 0.00 | 0.00 | 0.00 | 58 | 1013.0 |
| 20260506200704 | 56 | 277 | 2.6 | 6.1 | 0.00 | 0.00 | 0.00 | 58 | 1013.0 |
| 20260506200204 | 56 | 279 | 2.6 | 5.2 | 0.00 | 0.00 | 0.00 | 59 | 1013.1 |
| 20260506195705 | 56 | 279 | 7.0 | 8.7 | 0.00 | 0.00 | 0.00 | 59 | 1012.9 |
| 20260506195205 | 56 | 282 | 5.2 | 7.0 | 0.00 | 0.00 | 0.00 | 61 | 1013.2 |
| 20260506194704 | 55 | 280 | 3.5 | 5.2 | 0.00 | 0.00 | 0.00 | 63 | 1013.0 |
| 20260506194204 | 56 | 286 | 4.3 | 7.8 | 0.00 | 0.00 | 0.00 | 64 | 1013.2 |
| 20260506193704 | 56 | 262 | 2.6 | 4.3 | 0.00 | 0.00 | 0.00 | 65 | 1013.4 |
| 20260506192705 | 56 | 252 | 3.5 | 7.0 | 0.00 | 0.00 | 0.00 | 64 | 1013.3 |
| 20260506192204 | 56 | 249 | 5.2 | 7.8 | 0.00 | 0.00 | 0.00 | 64 | 1013.3 |
| 20260506191704 | 56 | 242 | 6.1 | 7.0 | 0.00 | 0.00 | 0.00 | 63 | 1013.3 |
| 20260506191204 | 56 | 231 | 5.2 | 6.1 | 0.00 | 0.00 | 0.00 | 63 | 1013.3 |
| 20260506190704 | 56 | 219 | 4.3 | 7.8 | 0.00 | 0.00 | 0.00 | 63 | 1013.4 |
| 20260506190204 | 56 | 235 | 6.1 | 10.4 | 0.00 | 0.00 | 0.00 | 61 | 1013.3 |
| 20260506185704 | 57 | 233 | 9.6 | 11.3 | 0.00 | 0.00 | 0.00 | 61 | 1013.3 |
| 20260506185204 | 57 | 215 | 10.4 | 12.2 | 0.00 | 0.00 | 0.00 | 63 | 1013.2 |
| 20260506183704 | 57 | 215 | 10.4 | 13.9 | 0.00 | 0.00 | 0.00 | 63 | 1013.0 |
| 20260506183204 | 57 | 206 | 7.0 | 10.4 | 0.00 | 0.00 | 0.00 | 64 | 1013.2 |
| 20260506182705 | 57 | 210 | 4.3 | 7.8 | 0.00 | 0.00 | 0.00 | 64 | 1013.2 |
| 20260506182204 | 57 | 214 | 1.7 | 6.1 | 0.00 | 0.00 | 0.00 | 64 | 1012.9 |
| 20260506181704 | 57 | 224 | 2.6 | 5.2 | 0.00 | 0.00 | 0.00 | 64 | 1012.9 |
| 20260506175204 | 58 | 251 | 7.0 | 8.7 | 0.00 | 0.00 | 0.00 | 64 | 1013.0 |
| 20260506174704 | 58 | 241 | 4.3 | 8.7 | 0.00 | 0.00 | 0.00 | 64 | 1013.0 |
| 20260506174204 | 58 | 241 | 3.5 | 5.2 | 0.00 | 0.00 | 0.00 | 64 | 1012.8 |
| 20260506173704 | 58 | 252 | 4.3 | 7.8 | 0.00 | 0.00 | 0.00 | 63 | 1012.8 |
| 20260506173204 | 58 | 268 | 5.2 | 8.7 | 0.00 | 0.00 | 0.00 | 63 | 1012.9 |
| 20260506172704 | 58 | 243 | 4.3 | 7.0 | 0.00 | 0.00 | 0.00 | 64 | 1012.9 |
| 20260506172204 | 58 | 218 | 6.1 | 13.0 | 0.00 | 0.00 | 0.00 | 63 | 1013.3 |
| 20260506171704 | 58 | 251 | 8.7 | 13.0 | 0.00 | 0.00 | 0.00 | 64 | 1013.1 |
| 20260506171204 | 58 | 215 | 7.8 | 13.0 | 0.00 | 0.00 | 0.00 | 64 | 1013.0 |
| 20260506170204 | 58 | 254 | 11.3 | 13.0 | 0.00 | 0.00 | 0.00 | 65 | 1013.2 |
| 20260506165707 | 58 | 262 | 10.4 | 13.9 | 0.00 | 0.00 | 0.00 | 66 | 1013.1 |
| 20260506165207 | 58 | 250 | 8.7 | 12.2 | 0.00 | 0.00 | 0.00 | 66 | 1013.2 |
| 20260506164707 | 58 | 262 | 8.7 | 12.2 | 0.00 | 0.00 | 0.00 | 66 | 1013.2 |
| 20260506163707 | 58 | 257 | 7.0 | 11.3 | 0.00 | 0.00 | 0.00 | 66 | 1013.2 |
| 20260506163207 | 58 | 267 | 9.6 | 14.8 | 0.00 | 0.00 | 0.00 | 65 | 1013.4 |
| 20260506162207 | 58 | 266 | 7.8 | 13.0 | 0.00 | 0.00 | 0.00 | 66 | 1013.3 |
| 20260506161707 | 58 | 267 | 10.4 | 15.6 | 0.00 | 0.00 | 0.00 | 66 | 1013.3 |
| 20260506161206 | 58 | 263 | 11.3 | 17.4 | 0.00 | 0.00 | 0.00 | 67 | 1013.6 |
| 20260506160707 | 58 | 258 | 11.3 | 17.4 | 0.00 | 0.00 | 0.00 | 68 | 1013.6 |
| 20260506155207 | 58 | 263 | 12.2 | 17.4 | 0.00 | 0.00 | 0.00 | 70 | 1013.6 |
| 20260506154206 | 58 | 250 | 11.3 | 14.8 | 0.00 | 0.00 | 0.00 | 72 | 1013.6 |
| 20260506153706 | 58 | 257 | 11.3 | 15.6 | 0.00 | 0.00 | 0.00 | 73 | 1013.7 |
| 20260506153206 | 59 | 256 | 7.0 | 10.4 | 0.00 | 0.00 | 0.00 | 74 | 1013.6 |
| 20260506152706 | 59 | 254 | 7.0 | 10.4 | 0.00 | 0.00 | 0.00 | 75 | 1013.7 |
| 20260506152206 | 59 | 251 | 8.7 | 11.3 | 0.00 | 0.00 | 0.00 | 75 | 1013.7 |
| 20260506151206 | 60 | 263 | 6.1 | 10.4 | 0.00 | 0.00 | 0.00 | 77 | 1013.7 |
| 20260506150706 | 60 | 262 | 5.2 | 8.7 | 0.00 | 0.00 | 0.00 | 78 | 1013.8 |
| 20260506150206 | 60 | 257 | 5.2 | 7.0 | 0.00 | 0.00 | 0.00 | 78 | 1013.9 |
| 20260506145706 | 60 | 269 | 5.2 | 7.8 | 0.00 | 0.00 | 0.00 | 79 | 1014.1 |
| 20260506145206 | 60 | 277 | 6.1 | 7.8 | 0.00 | 0.00 | 0.00 | 80 | 1014.1 |
| 20260506144707 | 60 | 278 | 7.0 | 7.8 | 0.00 | 0.00 | 0.00 | 81 | 1014.0 |
| 20260506144207 | 60 | 289 | 7.0 | 8.7 | 0.00 | 0.00 | 0.00 | 81 | 1014.1 |
| 20260506143706 | 60 | 291 | 7.8 | 8.7 | 0.00 | 0.00 | 0.00 | 82 | 1014.0 |
| 20260506143206 | 60 | 289 | 7.8 | 10.4 | 0.00 | 0.00 | 0.00 | 83 | 1014.0 |
| 20260506142706 | 60 | 287 | 7.8 | 10.4 | 0.00 | 0.00 | 0.00 | 83 | 1014.2 |
| 20260506142206 | 60 | 287 | 7.8 | 10.4 | 0.00 | 0.00 | 0.00 | 83 | 1014.3 |
| 20260506140706 | 61 | 282 | 7.8 | 8.7 | 0.00 | 0.00 | 0.00 | 83 | 1014.4 |
| 20260506140206 | 61 | 277 | 6.1 | 7.8 | 0.00 | 0.00 | 0.00 | 83 | 1014.5 |
| 20260506135706 | 61 | 276 | 7.0 | 8.7 | 0.00 | 0.00 | 0.00 | 83 | 1014.4 |
| 20260506135206 | 61 | 288 | 7.0 | 7.8 | 0.00 | 0.00 | 0.00 | 82 | 1014.3 |
| 20260506134706 | 61 | 288 | 6.1 | 8.7 | 0.00 | 0.00 | 0.00 | 82 | 1014.3 |
| 20260506134207 | 61 | 278 | 6.1 | 8.7 | 0.00 | 0.00 | 0.00 | 82 | 1014.4 |
| 20260506133707 | 61 | 290 | 6.1 | 10.4 | 0.00 | 0.00 | 0.00 | 82 | 1014.2 |
| 20260506133206 | 61 | 298 | 7.8 | 10.4 | 0.00 | 0.00 | 0.00 | 82 | 1014.3 |
| 20260506132706 | 61 | 300 | 7.8 | 10.4 | 0.00 | 0.00 | 0.00 | 82 | 1014.3 |
| 20260506131706 | 62 | 293 | 6.1 | 8.7 | 0.00 | 0.00 | 0.00 | 82 | 1014.3 |
| 20260506130707 | 62 | 294 | 6.1 | 8.7 | 0.00 | 0.00 | 0.00 | 82 | 1014.4 |
| 20260506130206 | 62 | 296 | 7.8 | 8.7 | 0.00 | 0.00 | 0.00 | 82 | 1014.5 |
| 20260506125206 | 62 | 293 | 7.8 | 10.4 | 0.00 | 0.00 | 0.00 | 82 | 1014.6 |
| 20260506124706 | 62 | 291 | 7.8 | 10.4 | 0.00 | 0.00 | 0.00 | 82 | 1014.7 |
| 20260506124206 | 62 | 287 | 7.8 | 10.4 | 0.00 | 0.00 | 0.00 | 82 | 1014.8 |
| 20260506123706 | 62 | 287 | 8.7 | 10.4 | 0.00 | 0.00 | 0.00 | 82 | 1014.9 |
| 20260506123206 | 62 | 294 | 7.8 | 10.4 | 0.00 | 0.00 | 0.00 | 82 | 1015.1 |
| 20260506122706 | 62 | 295 | 8.7 | 10.4 | 0.00 | 0.00 | 0.00 | 81 | 1015.1 |
| 20260506122205 | 62 | 298 | 7.8 | 10.4 | 0.00 | 0.00 | 0.00 | 81 | 1015.1 |
| 20260506121706 | 62 | 292 | 7.8 | 10.4 | 0.00 | 0.00 | 0.00 | 81 | 1015.2 |
| 20260506121206 | 62 | 296 | 7.8 | 10.4 | 0.00 | 0.00 | 0.00 | 81 | 1015.3 |
| 20260506120707 | 63 | 295 | 7.8 | 10.4 | 0.00 | 0.00 | 0.00 | 81 | 1015.3 |
| 20260506120206 | 63 | 298 | 7.8 | 10.4 | 0.00 | 0.00 | 0.00 | 81 | 1015.4 |
| 20260506115706 | 63 | 296 | 8.7 | 10.4 | 0.00 | 0.00 | 0.00 | 81 | 1015.4 |
| 20260506115206 | 63 | 299 | 8.7 | 10.4 | 0.00 | 0.00 | 0.00 | 81 | 1015.7 |
| 20260506114706 | 63 | 301 | 7.8 | 10.4 | 0.00 | 0.00 | 0.00 | 81 | 1015.5 |
| 20260506114206 | 63 | 292 | 7.0 | 8.7 | 0.00 | 0.00 | 0.00 | 80 | 1015.6 |